Regional Weather Roundup
Issued by NWS Charleston, WV

Home | Current Version | Previous Version | Text Only | Print | Product List | Glossary Off
Versions: 1 2 3 4 5 6 7 8 9 10 11 12 13 14 15 16 17 18 19 20 21 22 23 24 25 26 27 28 29 30 31 32 33 34 35 36 37 38 39 40 41 42 43 44 45 46 47 48 49 50

000
ASUS41 KRLX 161010
RWRRLX
West Virginia Regional Weather Roundup
National Weather Service Charleston WV
500 AM EST SAT DEC 16 2017

Note: "fair" indicates few or no clouds below 12,000 feet with no
significant weather and/or obstructions to visibility.

WVZ003-161100-
Northern Panhandle of West Virginia

CITY           SKY/WX    TMP DP  RH WIND       PRES   REMARKS
WHEELING       CLOUDY    28  20  71 SW15G23   30.02F
$$

WVZ009-161100-
Northwest West Virginia

CITY           SKY/WX    TMP DP  RH WIND       PRES   REMARKS
PARKERSBURG    CLOUDY    32  21  64 S8        30.12F
$$

WVZ006-161100-
Western West Virginia

CITY           SKY/WX    TMP DP  RH WIND       PRES   REMARKS
HUNTINGTON     MOCLDY    31  20  63 S7        30.13F
$$

WVZ015-161100-
West Central West Virginia

CITY           SKY/WX    TMP DP  RH WIND       PRES   REMARKS
CHARLESTON     CLOUDY    33  21  61 SW9       30.13F
$$

WVZ022-031-161100-
North Central West Virginia

CITY           SKY/WX    TMP DP  RH WIND       PRES   REMARKS
CLARKSBURG     CLOUDY    31  20  63 SW9       30.08F
MORGANTOWN     CLOUDY    29  18  63 SW8       30.07R
$$

WVZ025-035-042-045-161100-
Southern West Virginia

CITY           SKY/WX    TMP DP  RH WIND       PRES   REMARKS
BECKLEY        CLOUDY    24  18  77 W5        30.08S
LOGAN            N/A     28  21  74 CALM      30.13S
BLUEFIELD      CLEAR     24  16  71 W8        30.07S
LEWISBURG      CLOUDY    29  20  67 W7        30.08S
$$

WVZ047-161100-
Northern Mountains of West Virginia

CITY           SKY/WX    TMP DP  RH WIND       PRES   REMARKS
ELKINS         CLOUDY    27  18  69 SW12G18   30.07S
$$

WVZ052-161100-
Eastern Panhandle of West Virginia

CITY           SKY/WX    TMP DP  RH WIND       PRES   REMARKS
MARTINSBURG    CLEAR     32  15  49 W15       30.05R
PETERSBURG     CLOUDY    33  17  53 W12G17    30.06S
$$



USA.gov is the U.S. government's official web portal to all federal, state and local government web resources and services.